Regional Weather Roundup
Issued by NWS

Home | Current Version | Previous Version | Text Only | Print | Product List | Glossary On
Versions: 1 2 3 4 5 6 7 8 9 10 11 12 13 14 15 16 17 18 19 20 21 22 23 24 25 26 27 28 29 30 31 32 33 34 35 36 37 38 39 40 41 42 43 44 45 46 47 48 49 50
000
ASUS43 KBIS 012110
RWRND

NORTH DAKOTA REGIONAL WEATHER ROUNDUP
NATIONAL WEATHER SERVICE BISMARCK ND
400 PM CDT WED JUL 01 2015

NOTE: "FAIR" INDICATES FEW OR NO CLOUDS BELOW 12,000 FEET WITH NO
SIGNIFICANT WEATHER AND/OR OBSTRUCTIONS TO VISIBILITY.


NDZ001>003-009>011-017-012200-
NORTHWEST NORTH DAKOTA

CITY           SKY/WX    TMP DP  RH WIND       PRES   REMARKS
WILLISTON      SUNNY     77  58  51 VRB7      29.98F HAZE
MINOT          MOSUNNY   73  62  68 NW3       29.96F
MINOT AFB      MOSUNNY   75  71  86 CALM      29.96S
$$

NDZ018>021-031>035-040>046-012200-
SOUTHWEST NORTH DAKOTA

CITY           SKY/WX    TMP DP  RH WIND       PRES   REMARKS
BISMARCK       CLOUDY    76  64  66 SE6       29.95F
DICKINSON      PTSUNNY   71  60  68 VRB3      30.00S
GARRISON         N/A     76  64  66 NW3       29.97S
HETTINGER ARPT PTSUNNY   74  63  68 CALM      30.01F
$$

NDZ004>008-012>016-024-026-027-054-012200-
NORTHEAST NORTH DAKOTA

CITY           SKY/WX    TMP DP  RH WIND       PRES   REMARKS
GRAND FORKS    MOSUNNY   79  59  50 S8        29.93S
GRND FRKS AFB  MOSUNNY   78  60  54 S8        29.94S
DEVILS LAKE    SUNNY     75  55  50 SE5       29.94F
$$

NDZ022-023-025-028>030-036>039-047>053-012200-
SOUTHEAST NORTH DAKOTA

CITY           SKY/WX    TMP DP  RH WIND       PRES   REMARKS
FARGO          MOSUNNY   75  60  59 S12       29.96S
JAMESTOWN      MOSUNNY   75  61  61 S6        29.95F
$$




USA.gov is the U.S. government's official web portal to all federal, state and local government web resources and services.